Location: Unspecified
(0.0000°N, 0.0000°E)
Time: 00:32:47
(UTC+02:00)

Delta 168 - Visible Passes

Search period start: 07 May 2016 00:00
Search period end: 17 May 2016 00:00
Orbit: 395 x 2074 km, 25.3° (Epoch: 06 May)

Date Brightness Start Highest point End Pass type
(mag) Time Alt. Az. Time Alt. Az. Time Alt. Az.
07 May 7.3 02:52:24 16° NE 02:52:24 16° NE 02:54:28 10° NE visible
07 May 6.6 04:42:27 27° NNW 04:43:05 27° NNW 04:53:00 10° NE visible
07 May 7.1 06:37:30 10° NW 06:44:53 17° N 06:51:31 10° NNE visible
08 May 7.4 02:43:01 14° NE 02:43:01 14° NE 02:44:33 10° NE visible
08 May 6.7 04:33:04 25° NNW 04:33:36 26° NNW 04:43:20 10° NE visible
08 May 7.2 06:27:59 10° NW 06:35:36 18° N 06:42:30 10° NNE visible
08 May 6.2 22:19:37 10° SSW 22:19:38 10° SSW 22:19:38 10° SSW visible
09 May 7.5 02:33:38 13° NE 02:33:38 13° NE 02:34:34 10° NE visible
09 May 6.8 04:23:41 24° NNW 04:24:07 24° NNW 04:33:37 10° NE visible
09 May 7.2 06:18:26 10° NW 06:26:17 18° N 06:33:28 10° NE visible
09 May 5.9 22:10:26 10° SSW 22:11:08 14° SSW 22:11:08 14° SSW visible
10 May 7.5 02:24:16 11° NE 02:24:16 11° NE 02:24:33 10° NE visible
10 May 6.9 04:14:19 23° NNW 04:14:41 23° N 04:23:54 10° NE visible
10 May 7.2 06:08:52 10° NW 06:16:57 19° N 06:24:27 10° NE visible
10 May 5.5 22:01:18 10° SW 22:02:43 19° SSW 22:02:43 19° SSW visible
11 May 6.9 04:04:57 21° N 04:05:16 21° N 04:14:10 10° NE visible
11 May 7.2 05:59:16 10° NW 06:07:36 19° N 06:15:25 10° NE visible
11 May 5.0 21:52:09 10° SW 21:54:24 26° SSW 21:54:24 26° SSW visible
12 May 7.0 03:55:39 20° N 03:55:53 20° N 04:04:26 10° NE visible
12 May 7.2 05:49:39 10° NW 05:58:13 20° N 06:06:23 10° NE visible
12 May 4.3 21:43:03 10° SW 21:46:11 37° S 21:46:11 37° S visible
13 May 7.0 03:46:23 19° N 03:46:31 19° N 03:54:41 10° NE visible
13 May 7.2 05:40:01 10° NW 05:48:48 21° N 05:57:19 10° NE visible
13 May 3.7 21:33:57 10° SW 21:38:04 52° SSE 21:38:04 52° SSE visible
14 May 7.1 03:37:12 18° N 03:37:12 18° N 03:44:57 10° NE visible
14 May 7.2 05:30:21 10° NW 05:39:21 22° N 05:48:13 10° NE visible
14 May 6.7 07:29:28 10° NW 07:40:50 37° NNE 07:50:14 10° E visible
14 May 3.3 21:24:53 10° SW 21:29:05 62° SSE 21:30:01 52° ESE visible
15 May 7.1 03:28:07 17° N 03:28:07 17° N 03:35:13 10° NE visible
15 May 7.1 05:20:42 10° NW 05:29:52 23° NNE 05:39:05 10° ENE visible
15 May 6.6 07:19:28 10° NW 07:31:14 40° NNE 07:41:09 10° E visible
15 May 3.1 21:15:50 10° WSW 21:19:50 74° SSE 21:22:04 34° ENE visible
16 May 7.1 03:19:10 17° N 03:19:10 17° N 03:25:30 10° NE visible
16 May 7.1 05:11:02 10° NW 05:20:21 24° NNE 05:29:54 10° ENE visible
16 May 6.5 07:09:30 10° NW 07:21:34 44° NNE 07:31:59 10° E visible
16 May 2.9 21:06:50 10° WSW 21:10:37 89° NNW 21:14:10 20° ENE visible
16 May 6.4 23:04:00 10° WNW 23:04:20 12° WNW 23:04:20 12° WNW visible
